Lancaster, OH

9:09 PM EST on December 15, 2017 (GMT -0500)
Fairfield County

Weather History for KLHQ - September, 2013

Change the Weather History Date:

Tuesday, September 3, 2013

  Actual Average Record
Temperature  
Mean Temperature 62 °F -  
Max Temperature 70 °F 82 °F 101 °F (1953)
Min Temperature 52 °F 56 °F 39 °F (1946)
Degree Days  
Heating Degree Days 4    
Growing Degree Days 12 (Base 50)    
Moisture  
Dew Point 54 °F    
Average Humidity 78    
Maximum Humidity 97    
Minimum Humidity 58    
Precipitation  
Precipitation 0.01 in - - ()
Sea Level Pressure  
Sea Level Pressure 30.01 in    
Wind  
Wind Speed 5 mph (NNW)    
Max Wind Speed 12 mph    
Max Gust Speed 16 mph    
Visibility 10 miles    
Events      
Averages and records for this station are not official NWS values.
T = Trace of Precipitation, MM = Missing Value Source: NWS Daily Summary

Daily Weather History Graph

Daily Weather History Graph

Search for Another Location

Airport or City:

Trip Planner

Search our weather history database for the weather conditions in past years. The results will help you decide how hot, cold, wet, or windy it might be!

Date:

Astronomy

Sep. 03, 2013 Rise Set
Actual Time 7:00 AM EDT 7:58 PM EDT
Civil Twilight 6:33 AM EDT 8:25 PM EDT
Nautical Twilight 6:00 AM EDT 8:58 PM EDT
Astronomical Twilight 5:26 AM EDT 9:32 PM EDT
Moon 5:13 AM EDT (9/3) 6:44 PM EDT (9/3)
Length of Visible Light 13h 52m
Length of Day
12h 57m
Waning Crescent, 3% of the Moon is Illuminated
Sep 3
Waning Crescent
Sep 5
New
Sep 12
First Quarter
Sep 19
Full
Sep 26
Last Quarter

Hourly Weather History & Observations

Time (EDT) Temp. Dew Point Humidity Pressure Visibility Wind Dir Wind Speed Gust Speed Precip Events Conditions
12:53 AM 64.0 °F 60.1 °F 87% 29.88 in 10.0 mi NNW 4.6 mph - N/A   Clear
1:53 AM 63.0 °F 59.0 °F 87% 29.90 in 10.0 mi NNW 4.6 mph - 0.01 in   Partly Cloudy
2:53 AM 63.0 °F 57.9 °F 84% 29.90 in 10.0 mi NNW 3.5 mph - N/A   Scattered Clouds
3:53 AM 60.1 °F 57.0 °F 90% 29.90 in 10.0 mi NNW 4.6 mph - N/A   Scattered Clouds
4:53 AM 60.1 °F 55.9 °F 86% 29.91 in 10.0 mi NNW 4.6 mph - N/A   Clear
5:53 AM 57.9 °F 55.0 °F 90% 29.93 in 10.0 mi NNW 4.6 mph - N/A   Clear
6:53 AM 57.0 °F 54.0 °F 89% 29.95 in 10.0 mi NNW 4.6 mph - N/A   Clear
7:53 AM 57.0 °F 53.1 °F 87% 29.97 in 10.0 mi North 3.5 mph - N/A   Clear
8:53 AM 60.1 °F 54.0 °F 80% 30.00 in 10.0 mi Variable 5.8 mph - N/A   Clear
9:53 AM 61.0 °F 54.0 °F 78% 30.01 in 10.0 mi NNW 6.9 mph - N/A   Clear
10:41 AM 64.4 °F 53.6 °F 68% 30.03 in 10.0 mi NNW 6.9 mph - N/A   Mostly Cloudy
10:53 AM 64.0 °F 54.0 °F 70% 30.02 in 10.0 mi NNW 11.5 mph - N/A   Mostly Cloudy
11:53 AM 64.9 °F 53.1 °F 65% 30.03 in 10.0 mi NNW 5.8 mph - N/A   Mostly Cloudy
12:11 PM 66.2 °F 53.6 °F 64% 30.04 in 10.0 mi NW 9.2 mph - N/A   Scattered Clouds
12:53 PM 66.9 °F 53.1 °F 61% 30.02 in 10.0 mi NW 9.2 mph - N/A   Mostly Cloudy
1:53 PM 68.0 °F 53.1 °F 59% 30.02 in 10.0 mi NNW 9.2 mph - N/A   Scattered Clouds
2:53 PM 69.1 °F 54.0 °F 58% 30.02 in 10.0 mi NNW 9.2 mph 16.1 mph N/A   Mostly Cloudy
3:53 PM 68.0 °F 54.0 °F 61% 30.03 in 10.0 mi NW 9.2 mph - N/A   Mostly Cloudy
4:53 PM 66.9 °F 54.0 °F 63% 30.02 in 10.0 mi North 5.8 mph - N/A   Overcast
5:53 PM 64.9 °F 54.0 °F 68% 30.03 in 10.0 mi WNW 5.8 mph - N/A   Overcast
6:41 PM 64.4 °F 53.6 °F 68% 30.04 in 10.0 mi NNW 6.9 mph - N/A   Overcast
6:53 PM 64.0 °F 54.0 °F 70% 30.04 in 10.0 mi NNW 5.8 mph - N/A   Overcast
7:51 PM 60.8 °F 53.6 °F 77% 30.05 in 10.0 mi North 4.6 mph - N/A   Scattered Clouds
7:53 PM 60.1 °F 54.0 °F 80% 30.04 in 10.0 mi North 4.6 mph - N/A   Partly Cloudy
8:19 PM 59.0 °F 53.6 °F 82% 30.06 in 10.0 mi North 4.6 mph - N/A   Mostly Cloudy
8:30 PM 57.2 °F 53.6 °F 88% 30.06 in 10.0 mi NNE 4.6 mph - N/A   Scattered Clouds
8:53 PM 57.0 °F 54.0 °F 89% 30.06 in 10.0 mi Calm Calm - N/A   Clear
9:53 PM 54.0 °F 53.1 °F 97% 30.08 in 7.0 mi Calm Calm - N/A   Clear
10:53 PM 54.0 °F 52.0 °F 93% 30.08 in 5.0 mi Calm Calm - N/A   Clear
11:53 PM 52.0 °F 51.1 °F 97% 30.08 in 5.0 mi Calm Calm - N/A   Clear